Location: Asheville, NC
(35.6000°N, 82.5500°W)
Time: 16:06:36
(UTC-05:00)

OTV 5 (USA 277) - Pass Details

Date: 04 January 2018
Orbit: 404 x 417 km, 43.0° (Epoch: 07 September)

Event Time Altitude Azimuth Distance (km) Brightness Sun altitude
Exits shadow 06:02:17 21° 10° (N) 951 ? -19.4°
Drops below altitude 10° 06:04:23 10° 49° (NE) 1,453 ? -19.0°
Sets 06:06:46 0° 64° (ENE) 2,313 ? -18.5°
